TimeMST,TemperatureF,Dew PointF,Humidity,Sea Level PressureIn,VisibilityMPH,Wind Direction,Wind SpeedMPH,Gust SpeedMPH,PrecipitationIn,Events,Conditions,WindDirDegrees,DateUTC
12:53 AM,26.1,15.1,63,30.01,-9999.0,West,13.8,17.3,N/A,,Overcast,260,2013-02-14 07:53:00
1:53 AM,25.0,15.1,66,30.00,-9999.0,SW,17.3,21.9,N/A,,Scattered Clouds,230,2013-02-14 08:53:00
2:53 AM,25.0,15.1,66,30.00,-9999.0,West,17.3,-,N/A,,Scattered Clouds,260,2013-02-14 09:53:00
3:53 AM,24.1,14.0,65,30.00,-9999.0,WSW,15.0,-,N/A,,Overcast,250,2013-02-14 10:53:00
5:53 AM,24.1,15.1,69,30.06,-9999.0,West,8.1,-,N/A,,Overcast,260,2013-02-14 12:53:00
6:53 AM,24.1,16.0,71,30.09,-9999.0,North,9.2,-,N/A,,Overcast,360,2013-02-14 13:53:00
7:53 AM,21.9,19.0,89,30.15,-9999.0,North,15.0,-,0.00,Snow,Light Snow,350,2013-02-14 14:53:00
8:01 AM,21.2,19.4,93,30.04,-9999.0,NNW,15.0,-,0.00,Snow,Snow,340,2013-02-14 15:01:00
8:14 AM,21.2,19.4,93,30.04,-9999.0,NNW,11.5,21.9,0.00,Snow,Snow,340,2013-02-14 15:14:00
8:21 AM,21.2,19.4,93,30.04,-9999.0,NNW,11.5,-,0.00,Snow,Light Snow,330,2013-02-14 15:21:00
8:48 AM,21.2,19.4,93,30.05,-9999.0,NNW,15.0,-,0.00,Snow,Light Snow,330,2013-02-14 15:48:00
8:53 AM,23.0,19.0,85,30.15,-9999.0,NNW,17.3,-,0.00,Snow,Light Snow,330,2013-02-14 15:53:00
9:01 AM,21.2,19.4,93,30.05,-9999.0,NNW,15.0,-,0.00,Snow,Light Snow,330,2013-02-14 16:01:00
9:09 AM,23.0,17.6,80,30.05,-9999.0,NNW,16.1,-,0.00,Snow,Light Snow,330,2013-02-14 16:09:00
9:28 AM,21.2,17.6,86,30.06,-9999.0,NNW,17.3,-,0.00,Snow,Light Snow,330,2013-02-14 16:28:00
9:34 AM,21.2,17.6,86,30.06,-9999.0,North,20.7,-,0.00,Snow,Light Snow,350,2013-02-14 16:34:00
9:44 AM,19.4,17.6,93,30.07,-9999.0,North,20.7,-,0.00,Snow,Light Snow,350,2013-02-14 16:44:00
9:53 AM,18.0,14.0,84,30.18,-9999.0,North,21.9,-,0.00,Snow,Light Snow,10,2013-02-14 16:53:00
10:22 AM,17.6,12.2,79,30.09,-9999.0,North,19.6,-,0.00,Snow,Light Snow,360,2013-02-14 17:22:00
10:48 AM,17.6,12.2,79,30.12,-9999.0,North,17.3,-,0.00,,Mostly Cloudy,10,2013-02-14 17:48:00
10:53 AM,17.1,12.0,81,30.23,-9999.0,North,17.3,-,0.00,Snow,Light Snow,10,2013-02-14 17:53:00
10:55 AM,17.1,12.0,81,30.23,10.0,North,17.3,-,0.00,Snow,Light Snow,10,2013-02-14 17:55:00
11:40 AM,15.8,12.2,86,30.12,1.0,North,20.7,27.6,N/A,Snow,Light Snow,350,2013-02-14 18:40:00
11:41 AM,15.8,12.2,86,30.12,-9999.0,North,20.7,27.6,0.00,Snow,Snow,350,2013-02-14 18:41:00
11:53 AM,15.1,10.9,84,30.26,-9999.0,North,20.7,-,0.00,Snow,Light Snow,350,2013-02-14 18:53:00
11:59 AM,15.8,10.4,79,30.13,-9999.0,North,23.0,29.9,0.00,Snow,Light Snow,350,2013-02-14 18:59:00
12:06 PM,15.8,10.4,79,30.13,-9999.0,North,20.7,29.9,0.00,Snow,Light Snow,360,2013-02-14 19:06:00
12:13 PM,15.8,10.4,79,30.13,-9999.0,North,17.3,26.5,0.00,,Overcast,360,2013-02-14 19:13:00
12:26 PM,17.6,10.4,73,30.13,-9999.0,North,16.1,24.2,0.00,,Overcast,350,2013-02-14 19:26:00
12:53 PM,17.1,10.9,77,30.24,-9999.0,North,15.0,-,0.00,,Overcast,350,2013-02-14 19:53:00
1:08 PM,15.8,12.2,86,30.12,-9999.0,North,15.0,-,0.00,Snow,Light Snow,350,2013-02-14 20:08:00
1:26 PM,15.8,10.4,79,30.12,-9999.0,NNW,19.6,24.2,0.00,Snow,Light Snow,340,2013-02-14 20:26:00
1:53 PM,17.1,10.0,74,30.24,-9999.0,North,16.1,-,0.00,,Scattered Clouds,350,2013-02-14 20:53:00
2:53 PM,17.1,10.9,77,30.26,-9999.0,North,13.8,-,N/A,,Clear,350,2013-02-14 21:53:00
3:53 PM,16.0,10.0,77,30.27,-9999.0,North,15.0,-,N/A,,Overcast,360,2013-02-14 22:53:00
4:53 PM,15.1,9.0,77,30.28,-9999.0,North,9.2,-,N/A,,Overcast,350,2013-02-14 23:53:00
5:53 PM,14.0,9.0,80,30.29,-9999.0,North,4.6,-,N/A,,Overcast,350,2013-02-15 00:53:00
6:53 PM,14.0,9.0,80,30.30,-9999.0,Calm,Calm,-,N/A,,Overcast,0,2013-02-15 01:53:00
7:53 PM,12.9,10.0,88,30.30,-9999.0,WSW,4.6,-,0.00,Snow,Light Snow,250,2013-02-15 02:53:00
8:42 PM,14.0,10.4,86,30.15,-9999.0,SW,3.5,-,0.00,Snow,Light Snow,230,2013-02-15 03:42:00
8:53 PM,14.0,10.9,88,30.29,-9999.0,Calm,Calm,-,0.00,Snow,Light Snow,0,2013-02-15 03:53:00
9:53 PM,14.0,12.0,92,30.32,-9999.0,Calm,Calm,-,0.00,Snow,Light Snow,0,2013-02-15 04:53:00
10:53 PM,10.9,9.0,92,30.34,-9999.0,West,4.6,-,0.00,,Overcast,280,2013-02-15 05:53:00
11:53 PM,12.0,10.0,92,30.34,-9999.0,SSW,4.6,-,0.00,,Overcast,210,2013-02-15 06:53:00